Location: Woodstock
(35.2731°N, 89.9823°W)
Time: 16:46:59
(UTC+00:00)

Vanguard 3 - Pass Details

Date: 28 May 2025
Orbit: 508 x 3215 km, 33.3° (Epoch: 14 June)

Event Time Altitude Azimuth Distance (km) Brightness Sun altitude
Rises 11:27:39 0° 278° (W) 4,270 10.3 6.6°
Reaches altitude 10° 11:31:17 10° 273° (W) 2,879 9.4 7.2°
Maximum altitude 11:37:25 47° 201° (SSW) 956 7.4 8.4°
Drops below altitude 10° 11:41:28 10° 126° (SE) 1,899 9.6 9.2°
Sets 11:43:26 0° 120° (ESE) 2,682 10.5 9.6°
